Powrót do katalogu

TAIJING-3 05B

AktywnyNaukaSSO
NORAD 69101·PAYLOAD·🇨🇳 China
Ta nazwa satelity nie została jeszcze potwierdzona przez oficjalne źródła.

Wystrzelony May 15, 2026 z Jiuquan Satellite Launch Center

Loading…

Następne Przeloty (najbliższe 24 godziny)

TLE

ŚwieżeSource: Space-Track

Epoka: Sep 14, 2026, 22:42 UTC

1 69101U 26106E   26257.94634164  .00006438  00000-0  37303-3 0  9991
2 69101  97.5024 338.4810 0015498 216.8454 143.1713 15.12440978 18549

Śledź TAIJING-3 05B w czasie rzeczywistym z AllMySat

Download on the App Store